Overview Statistics Trail Chart Weather Telemetry Raw packets
 

This is the latest recevied weather packets stored in our database for station/object DL4SAV. If no packets are shown the sender has not sent any weather packets the latest 10 day(s).

<< 8 9 10 11 12 13 14 >>
Time Temp. Humidity Pressure Rain* Wind** Luminosity Snow
1788543178 27.78° C 41% 1016 hPa 0 mm - - -
1788542877 27.78° C 40% 1016 hPa 0 mm - - -
1788542577 28.33° C 39% 1015.8 hPa 0 mm - - -
1788542277 28.89° C 38% 1016.1 hPa 0 mm - - -
1788541976 29.44° C 37% 1016 hPa 0 mm - - -
1788541676 30° C 36% 1016.1 hPa 0 mm - - -
1788541376 30.56° C 36% 1016.1 hPa 0 mm - - -
1788541076 30.56° C 35% 1016.1 hPa 0 mm - - -
1788540775 31.11° C 35% 1015.9 hPa 0 mm - - -
1788540475 31.11° C 35% 1015.9 hPa 0 mm - - -
1788540175 31.11° C 35% 1015.8 hPa 0 mm - - -
1788539874 31.67° C 34% 1016 hPa 0 mm - - -
1788539574 31.67° C 34% 1016.1 hPa 0 mm - - -
1788539274 32.22° C 34% 1016 hPa 0 mm - - -
1788538974 32.78° C 34% 1016.1 hPa 0 mm - - -
1788538673 32.78° C 34% 1015.9 hPa 0 mm - - -
1788538373 32.22° C 34% 1015.9 hPa 0 mm - - -
1788538073 32.22° C 35% 1016.1 hPa 0 mm - - -
1788537772 32.22° C 34% 1016.1 hPa 0 mm - - -
1788537472 32.22° C 35% 1016.1 hPa 0 mm - - -
1788537172 32.22° C 35% 1016 hPa 0 mm - - -
1788536872 31.67° C 36% 1015.9 hPa 0 mm - - -
1788536571 31.11° C 36% 1016 hPa 0 mm - - -
1788536271 31.11° C 35% 1016.2 hPa 0 mm - - -
1788535971 31.11° C 35% 1015.9 hPa 0 mm - - -

* Rain latest hour (hover to see other rain measurements)
** Current wind speed in m/s (hover to see current wind gust speed)